S-48 Data,,,,
4/29/00 (1045) TO 5/16/00 (1330),,,,

Date - Time,Temp,Salinity,Turdibity,SpCond
,[celcius],[ppt],[NTU],

4/29/2000 11:30,26.37,0.6,7.8,
4/29/2000 11:45,26.38,0.6,11.2,
4/29/2000 12:00,26.4,0.6,7.9,
4/29/2000 12:15,26.45,0.6,9.2,
4/29/2000 12:30,26.48,0.6,9.2,
4/29/2000 12:45,26.5,0.6,7.1,
4/29/2000 13:00,26.6,0.6,5.4,
4/29/2000 13:15,26.74,0.6,4.7,
4/29/2000 13:30,26.8,0.6,6.7,
4/29/2000 13:45,26.94,0.6,6.2,
4/29/2000 14:00,26.86,0.6,3.6
4/29/2000 14:15,26.89,0.6,3.1
4/29/2000 14:30,27,0.6,5
4/29/2000 14:45,26.98,0.6,3.2
4/29/2000 15:00,27.12,0.6,2.2
4/29/2000 15:15,27.1,0.6,3.6
4/29/2000 15:30,26.74,0.6,2.7
4/29/2000 15:45,26.96,0.6,2.6
4/29/2000 16:00,26.88,0.6,5.3
4/29/2000 16:15,26.93,0.6,2.8
4/29/2000 16:30,26.85,0.6,3.1
4/29/2000 16:45,26.82,0.6,4.4
4/29/2000 17:00,26.75,0.6,4
4/29/2000 17:15,26.72,0.6,4.6
4/29/2000 17:30,26.67,0.6,3
4/29/2000 17:45,26.62,0.6,4.3
4/29/2000 18:00,26.6,0.6,4.5
4/29/2000 18:15,26.55,0.6,3.5
4/29/2000 18:30,26.43,0.6,8.3
4/29/2000 18:45,26.41,0.6,15.9
4/29/2000 19:00,26.36,0.6,16.8
4/29/2000 19:15,26.26,0.6,12.8
4/29/2000 19:30,26.25,0.6,12.3
4/29/2000 19:45,26.24,0.6,9.7
4/29/2000 20:00,26.22,0.6,10.3
4/29/2000 20:15,26.14,0.6,13.2
4/29/2000 20:30,26.13,0.6,31.6
4/29/2000 20:45,26.09,0.6,22.7
4/29/2000 21:00,26.05,0.6,17.9
4/29/2000 21:15,26.07,0.6,12.6
4/29/2000 21:30,26.07,0.6,19.6
4/29/2000 21:45,26.05,0.6,10
4/29/2000 22:00,26.05,0.6,17.7
4/29/2000 22:15,26.03,0.6,18.4
4/29/2000 22:30,26.02,0.6,8.9
4/29/2000 22:45,25.99,0.6,11.1
4/29/2000 23:00,25.98,0.6,12.7
4/29/2000 23:15,25.97,0.6,11.5
4/29/2000 23:30,25.93,0.6,6.5
4/29/2000 23:45,25.89,0.6,9
4/30/2000 0:00,25.87,0.6,9.2
4/30/2000 0:15,25.85,0.6,5.6
4/30/2000 0:30,25.86,0.6,5.4
4/30/2000 0:45,25.83,0.6,5.4
4/30/2000 1:00,25.8,0.6,5.8
4/30/2000 1:15,25.78,0.6,5.3
4/30/2000 1:30,25.77,0.6,10.1
4/30/2000 1:45,25.75,0.6,7.7
4/30/2000 2:00,25.74,0.6,7.2
4/30/2000 2:15,25.74,0.6,4.8
4/30/2000 2:30,25.72,0.6,6.8
4/30/2000 2:45,25.72,0.6,5.7
4/30/2000 3:00,25.7,0.6,3.6
4/30/2000 3:15,25.7,0.6,6.4
4/30/2000 3:30,25.68,0.6,5.3
4/30/2000 3:45,25.67,0.6,3.2
4/30/2000 4:00,25.64,0.6,5.1
4/30/2000 4:15,25.62,0.6,15.1
4/30/2000 4:30,25.63,0.6,6.8
4/30/2000 4:45,25.63,0.6,5.4
4/30/2000 5:00,25.6,0.6,5.3
4/30/2000 5:15,25.58,0.6,6.4
4/30/2000 5:30,25.56,0.6,4.9
4/30/2000 5:45,25.54,0.6,5.7
4/30/2000 6:00,25.52,0.6,12.6
4/30/2000 6:15,25.52,0.6,10.4
4/30/2000 6:30,25.55,0.6,14.8
4/30/2000 6:45,25.55,0.6,7.5
4/30/2000 7:00,25.54,0.6,5.3
4/30/2000 7:15,25.51,0.6,6.7
4/30/2000 7:30,25.49,0.6,9.1
4/30/2000 7:45,25.49,0.6,5.3
4/30/2000 8:00,25.48,0.6,4.3
4/30/2000 8:15,25.49,0.6,7.5
4/30/2000 8:30,25.49,0.6,5.7
4/30/2000 8:45,25.51,0.6,6.1
4/30/2000 9:00,25.59,0.6,4.7
4/30/2000 9:15,25.66,0.6,5
4/30/2000 9:30,25.55,0.6,4.3
4/30/2000 9:45,25.7,0.6,8.7
4/30/2000 10:00,25.71,0.6,6
4/30/2000 10:15,25.72,0.6,4.7
4/30/2000 10:30,25.73,0.6,3.4
4/30/2000 10:45,25.68,0.6,3.3
4/30/2000 11:00,25.76,0.6,3.6
4/30/2000 11:15,25.75,0.6,2.4
4/30/2000 11:30,25.76,0.6,3.2
4/30/2000 11:45,25.77,0.6,2.3
4/30/2000 12:00,25.78,0.6,2.3
4/30/2000 12:15,25.82,0.6,1.7
4/30/2000 12:30,25.81,0.6,2.9
4/30/2000 12:45,25.8,0.6,3.3
4/30/2000 13:00,25.86,0.6,2.1
4/30/2000 13:15,25.84,0.6,2.7
4/30/2000 13:30,26.03,0.6,2.9
4/30/2000 13:45,25.83,0.6,4.9
4/30/2000 14:00,25.89,0.6,2.3
4/30/2000 14:15,25.82,0.6,3.4
4/30/2000 14:30,25.79,0.6,3.2
4/30/2000 14:45,25.79,0.6,2.1
4/30/2000 15:00,25.89,0.6,2.5
4/30/2000 15:15,25.89,0.6,3.3
4/30/2000 15:30,25.68,0.6,3.7
4/30/2000 15:45,25.82,0.6,3.7
4/30/2000 16:00,25.87,0.6,2.1
4/30/2000 16:15,25.86,0.6,2.5
4/30/2000 16:30,25.78,0.6,2.9
4/30/2000 16:45,25.87,0.6,2.5
4/30/2000 17:00,25.81,0.6,3.7
4/30/2000 17:15,25.86,0.6,2.1
4/30/2000 17:30,25.9,0.6,3.9
4/30/2000 17:45,25.84,0.6,3.4
4/30/2000 18:00,25.82,0.6,2.1
4/30/2000 18:15,25.87,0.6,3.6
4/30/2000 18:30,25.89,0.6,3.6
4/30/2000 18:45,25.87,0.6,6.6
4/30/2000 19:00,25.76,0.6,2.5
4/30/2000 19:15,25.75,0.6,3.1
4/30/2000 19:30,25.78,0.6,2.8
4/30/2000 19:45,25.8,0.6,2.5
4/30/2000 20:00,25.78,0.6,4
4/30/2000 20:15,25.75,0.6,3.9
4/30/2000 20:30,25.75,0.6,3.3
4/30/2000 20:45,25.74,0.6,7.6
4/30/2000 21:00,25.74,0.6,3.9
4/30/2000 21:15,25.73,0.6,5.1
4/30/2000 21:30,25.71,0.6,7
4/30/2000 21:45,25.7,0.6,4.9
4/30/2000 22:00,25.67,0.6,5.3
4/30/2000 22:15,25.66,0.6,6
4/30/2000 22:30,25.64,0.6,7.9
4/30/2000 22:45,25.62,0.6,8.6
4/30/2000 23:00,25.61,0.6,7.8
4/30/2000 23:15,25.6,0.6,8
4/30/2000 23:30,25.57,0.6,2.9
4/30/2000 23:45,25.56,0.6,7.2
5/1/2000 0:00,25.54,0.6,5.8
5/1/2000 0:15,25.51,0.6,5.6
5/1/2000 0:30,25.5,0.6,6.5
5/1/2000 0:45,25.48,0.6,5.4
5/1/2000 1:00,25.48,0.6,9.4
5/1/2000 1:15,25.46,0.6,8.4
5/1/2000 1:30,25.43,0.6,9
5/1/2000 1:45,25.42,0.6,4
5/1/2000 2:00,25.41,0.6,6.7
5/1/2000 2:15,25.38,0.6,4.2
5/1/2000 2:30,25.37,0.6,8.4
5/1/2000 2:45,25.35,0.6,5.3
5/1/2000 3:00,25.35,0.6,7
5/1/2000 3:15,25.33,0.6,7.3
5/1/2000 3:30,25.31,0.6,4.8
5/1/2000 3:45,25.3,0.6,4.7
5/1/2000 4:00,25.28,0.6,8.5
5/1/2000 4:15,25.26,0.6,5
5/1/2000 4:30,25.22,0.6,5.7
5/1/2000 4:45,25.21,0.6,9.2
5/1/2000 5:00,25.2,0.6,4.8
5/1/2000 5:15,25.18,0.6,6.2
5/1/2000 5:30,25.16,0.6,5.5
5/1/2000 5:45,25.15,0.6,5.4
5/1/2000 6:00,25.12,0.6,4.7
5/1/2000 6:15,25.1,0.6,11.7
5/1/2000 6:30,25.08,0.6,5.1
5/1/2000 6:45,25.06,0.6,4.7
5/1/2000 7:00,25.04,0.6,5.2
5/1/2000 7:15,25.01,0.6,5.3
5/1/2000 7:30,24.99,0.6,4.8
5/1/2000 7:45,24.98,0.6,5.2
5/1/2000 8:00,24.96,0.6,6.7
5/1/2000 8:15,25,0.6,7
5/1/2000 8:30,25.03,0.6,4.6
5/1/2000 8:45,25.04,0.6,6.1
5/1/2000 9:00,25.08,0.6,5.2
5/1/2000 9:15,25.07,0.6,3.2
5/1/2000 9:30,25.06,0.6,5.3
5/1/2000 9:45,25.06,0.6,4.5
5/1/2000 10:00,25.05,0.6,5.5
5/1/2000 10:15,25.04,0.6,6.1
5/1/2000 10:30,25.04,0.6,3
5/1/2000 10:45,25.04,0.6,5
5/1/2000 11:00,25.04,0.6,4.3
5/1/2000 11:15,25.05,0.6,3.1
5/1/2000 11:30,25.04,0.6,4.8
5/1/2000 11:45,25.04,0.6,3.2
5/1/2000 12:00,25.04,0.6,3.4
5/1/2000 12:15,25.05,0.6,6.8
5/1/2000 12:30,25.07,0.6,4.1
5/1/2000 12:45,25.07,0.6,4.1
5/1/2000 13:00,25.09,0.6,4.2
5/1/2000 13:15,25.08,0.6,7.2
5/1/2000 13:30,25.08,0.6,5.6
5/1/2000 13:45,25.08,0.6,6.4
5/1/2000 14:00,25.15,0.6,3.5
5/1/2000 14:15,25.14,0.6,3.6
5/1/2000 14:30,25.18,0.6,6.5
5/1/2000 14:45,25.21,0.6,4.7
5/1/2000 15:00,25.2,0.6,4
5/1/2000 15:15,25.17,0.6,3.9
5/1/2000 15:30,25.17,0.6,5.3
5/1/2000 15:45,25.22,0.6,3.6
5/1/2000 16:00,25.24,0.6,3.8
5/1/2000 16:15,25.29,0.6,3.6
5/1/2000 16:30,25.26,0.6,5.2
5/1/2000 16:45,25.26,0.6,4.6
5/1/2000 17:00,25.27,0.6,5.6
5/1/2000 17:15,25.26,0.6,3.2
5/1/2000 17:30,25.3,0.6,4.8
5/1/2000 17:45,25.28,0.6,3.7
5/1/2000 18:00,25.24,0.6,4
5/1/2000 18:15,25.24,0.6,3.6
5/1/2000 18:30,25.24,0.6,4.3
5/1/2000 18:45,25.34,0.6,5.2
5/1/2000 19:00,25.29,0.6,6.1
5/1/2000 19:15,25.32,0.6,4.7
5/1/2000 19:30,25.29,0.6,4.1
5/1/2000 19:45,25.26,0.6,9.5
5/1/2000 20:00,25.25,0.6,6.9
5/1/2000 20:15,25.21,0.6,9.4
5/1/2000 20:30,25.18,0.6,5.9
5/1/2000 20:45,25.16,0.6,5
5/1/2000 21:00,25.15,0.6,5.3
5/1/2000 21:15,25.11,0.6,5.4
5/1/2000 21:30,25.07,0.6,6.6
5/1/2000 21:45,25.09,0.6,6.2
5/1/2000 22:00,25.04,0.6,4.8
5/1/2000 22:15,24.99,0.6,8.4
5/1/2000 22:30,24.99,0.6,8.1
5/1/2000 22:45,24.98,0.6,8.1
5/1/2000 23:00,24.96,0.6,6
5/1/2000 23:15,24.92,0.6,5.1
5/1/2000 23:30,24.93,0.6,8.7
5/1/2000 23:45,24.92,0.6,6.5
5/2/2000 0:00,24.93,0.6,6.4
5/2/2000 0:15,24.9,0.6,5.6
5/2/2000 0:30,24.91,0.6,10.6
5/2/2000 0:45,24.9,0.6,6.7
5/2/2000 1:00,24.88,0.6,3.8
5/2/2000 1:15,24.86,0.6,9.1
5/2/2000 1:30,24.84,0.6,6.2
5/2/2000 1:45,24.84,0.6,7
5/2/2000 2:00,24.83,0.6,5.1
5/2/2000 2:15,24.82,0.6,8
5/2/2000 2:30,24.8,0.6,2.9
5/2/2000 2:45,24.77,0.6,4.1
5/2/2000 3:00,24.76,0.6,7.2
5/2/2000 3:15,24.75,0.6,3.9
5/2/2000 3:30,24.75,0.6,7
5/2/2000 3:45,24.73,0.6,8.6
5/2/2000 4:00,24.73,0.6,5.1
5/2/2000 4:15,24.72,0.6,4.6
5/2/2000 4:30,24.69,0.6,3.5
5/2/2000 4:45,24.68,0.6,6.2
5/2/2000 5:00,24.68,0.6,7.8
5/2/2000 5:15,24.65,0.6,5.9
5/2/2000 5:30,24.64,0.6,6.4
5/2/2000 5:45,24.63,0.6,3.7
5/2/2000 6:00,24.61,0.6,3.2
5/2/2000 6:15,24.59,0.6,5.1
5/2/2000 6:30,24.59,0.6,5.4
5/2/2000 6:45,24.57,0.6,5.1
5/2/2000 7:00,24.57,0.6,4.7
5/2/2000 7:15,24.57,0.6,9.4
5/2/2000 7:30,24.56,0.6,5.6
5/2/2000 7:45,24.56,0.6,10.6
5/2/2000 8:00,24.55,0.6,3.8
5/2/2000 8:15,24.54,0.6,5.4
5/2/2000 8:30,24.57,0.6,8.4
5/2/2000 8:45,24.56,0.6,9.2
5/2/2000 9:00,24.59,0.6,5.8
5/2/2000 9:15,24.59,0.6,8.2
5/2/2000 9:30,24.61,0.6,5.3
5/2/2000 9:45,24.6,0.6,4.6
5/2/2000 10:00,24.61,0.6,4
5/2/2000 10:15,24.62,0.6,2.6
5/2/2000 10:30,24.63,0.6,3.9
5/2/2000 10:45,24.65,0.6,2.9
5/2/2000 11:00,24.68,0.6,4.2
5/2/2000 11:15,24.72,0.6,2.5
5/2/2000 11:30,24.71,0.6,2.5
5/2/2000 11:45,24.74,0.6,2.9
5/2/2000 12:00,24.75,0.6,5.4
5/2/2000 12:15,24.76,0.6,4.4
5/2/2000 12:30,24.79,0.6,3.6
5/2/2000 12:45,24.82,0.6,4.3
5/2/2000 13:00,24.83,0.6,3.4
5/2/2000 13:15,24.82,0.6,4.7
5/2/2000 13:30,24.86,0.6,5.1
5/2/2000 13:45,24.88,0.6,2.9
5/2/2000 14:00,24.91,0.6,2.3
5/2/2000 14:15,24.89,0.6,4.7
5/2/2000 14:30,24.93,0.6,2.4
5/2/2000 14:45,24.94,0.6,4.4
5/2/2000 15:00,24.94,0.6,5.3
5/2/2000 15:15,24.96,0.6,5
5/2/2000 15:30,24.97,0.6,4.7
5/2/2000 15:45,24.95,0.6,3.8
5/2/2000 16:00,25.01,0.6,3.1
5/2/2000 16:15,24.99,0.6,2.8
5/2/2000 16:30,24.97,0.6,3.2
5/2/2000 16:45,24.99,0.6,4
5/2/2000 17:00,24.96,0.6,3.4
5/2/2000 17:15,24.97,0.6,2.7
5/2/2000 17:30,24.96,0.6,3.7
5/2/2000 17:45,24.99,0.6,4
5/2/2000 18:00,24.99,0.6,4.1
5/2/2000 18:15,25.01,0.6,3.9
5/2/2000 18:30,25.14,0.6,3.9
5/2/2000 18:45,25.02,0.6,4.2
5/2/2000 19:00,25.09,0.6,4.1
5/2/2000 19:15,24.97,0.6,3.6
5/2/2000 19:30,24.95,0.6,2.8
5/2/2000 19:45,25.02,0.6,3.6
5/2/2000 20:00,25.02,0.6,2.9
5/2/2000 20:15,25.02,0.6,4.5
5/2/2000 20:30,25,0.6,3.3
5/2/2000 20:45,24.97,0.6,4.7
5/2/2000 21:00,24.96,0.6,3.5
5/2/2000 21:15,24.95,0.6,3.2
5/2/2000 21:30,24.92,0.6,4
5/2/2000 21:45,24.91,0.6,2.8
5/2/2000 22:00,24.9,0.6,5.6
5/2/2000 22:15,24.96,0.6,2.9
5/2/2000 22:30,24.97,0.6,5.6
5/2/2000 22:45,24.97,0.6,4.5
5/2/2000 23:00,24.95,0.6,4.6
5/2/2000 23:15,24.94,0.6,4.4
5/2/2000 23:30,24.92,0.6,7.1
5/2/2000 23:45,24.93,0.6,4
5/3/2000 0:00,24.91,0.6,5.6
5/3/2000 0:15,24.89,0.6,3.1
5/3/2000 0:30,24.86,0.6,4.6
5/3/2000 0:45,24.86,0.6,3.2
5/3/2000 1:00,24.84,0.6,2.6
5/3/2000 1:15,24.82,0.6,4.1
5/3/2000 1:30,24.82,0.6,4.5
5/3/2000 1:45,24.83,0.6,4.2
5/3/2000 2:00,24.81,0.6,2.8
5/3/2000 2:15,24.8,0.6,5.3
5/3/2000 2:30,24.79,0.6,2.3
5/3/2000 2:45,24.78,0.6,2.9
5/3/2000 3:00,24.77,0.6,2.9
5/3/2000 3:15,24.75,0.6,2.6
5/3/2000 3:30,24.75,0.6,3.6
5/3/2000 3:45,24.74,0.6,2.7
5/3/2000 4:00,24.72,0.6,4.4
5/3/2000 4:15,24.71,0.6,4
5/3/2000 4:30,24.7,0.6,4
5/3/2000 4:45,24.69,0.6,4
5/3/2000 5:00,24.66,0.6,3
5/3/2000 5:15,24.66,0.6,2.5
5/3/2000 5:30,24.66,0.6,3.3
5/3/2000 5:45,24.63,0.6,2.6
5/3/2000 6:00,24.62,0.6,5.3
5/3/2000 6:15,24.6,0.6,3.3
5/3/2000 6:30,24.6,0.6,4.7
5/3/2000 6:45,24.59,0.6,3.6
5/3/2000 7:00,24.58,0.6,5.1
5/3/2000 7:15,24.58,0.6,3.6
5/3/2000 7:30,24.58,0.6,3.9
5/3/2000 7:45,24.56,0.6,3.6
5/3/2000 8:00,24.57,0.6,2.9
5/3/2000 8:15,24.56,0.6,5.4
5/3/2000 8:30,24.57,0.6,3.9
5/3/2000 8:45,24.58,0.6,5.2
5/3/2000 9:00,24.59,0.6,3.4
5/3/2000 9:15,24.61,0.6,3.5
5/3/2000 9:30,24.6,0.6,2.7
5/3/2000 9:45,24.61,0.6,2.9
5/3/2000 10:00,24.63,0.6,4
5/3/2000 10:15,24.64,0.6,3.7
5/3/2000 10:30,24.65,0.6,3.5
5/3/2000 10:45,24.65,0.6,4.3
5/3/2000 11:00,24.65,0.6,2.6
5/3/2000 11:15,24.66,0.6,4.7
5/3/2000 11:30,24.68,0.6,2.6
5/3/2000 11:45,24.69,0.6,2.9
5/3/2000 12:00,24.75,0.6,5.7
5/3/2000 12:15,24.76,0.6,4.4
5/3/2000 12:30,24.8,0.6,3.2
5/3/2000 12:45,24.83,0.6,3.2
5/3/2000 13:00,24.86,0.6,3.2
5/3/2000 13:15,24.89,0.6,4.3
5/3/2000 13:30,24.88,0.6,2.9
5/3/2000 13:45,24.91,0.6,2.8
5/3/2000 14:00,24.86,0.6,2.9
5/3/2000 14:15,24.86,0.6,3.1
5/3/2000 14:30,24.83,0.6,4.7
5/3/2000 14:45,24.98,0.6,6.5
5/3/2000 15:00,25.01,0.6,4.5
5/3/2000 15:15,24.98,0.6,5.7
5/3/2000 15:30,25.09,0.6,5.8
5/3/2000 15:45,25.01,0.6,3.7
5/3/2000 16:00,25.12,0.6,3.8
5/3/2000 16:15,25.17,0.6,3.2
5/3/2000 16:30,25.16,0.6,3.6
5/3/2000 16:45,25.09,0.6,5.6
5/3/2000 17:00,25.27,0.6,5.4
5/3/2000 17:15,25.18,0.6,5.3
5/3/2000 17:30,25.2,0.6,4.5
5/3/2000 17:45,25.29,0.6,4.2
5/3/2000 18:00,25.25,0.6,3.9
5/3/2000 18:15,25.3,0.6,3.3
5/3/2000 18:30,25.18,0.6,5
5/3/2000 18:45,25.15,0.6,6.1
5/3/2000 19:00,25.23,0.6,5.3
5/3/2000 19:15,25.23,0.6,6.1
5/3/2000 19:30,25.17,0.6,5.6
5/3/2000 19:45,25.2,0.6,3.6
5/3/2000 20:00,25.17,0.6,3.6
5/3/2000 20:15,25.15,0.6,6.1
5/3/2000 20:30,25.12,0.6,4.8
5/3/2000 20:45,25.09,0.6,5.8
5/3/2000 21:00,25.08,0.6,4.2
5/3/2000 21:15,25.06,0.6,3.7
5/3/2000 21:30,25.01,0.6,4.1
5/3/2000 21:45,24.99,0.6,6.6
5/3/2000 22:00,24.97,0.6,4.9
5/3/2000 22:15,24.93,0.6,5
5/3/2000 22:30,24.92,0.6,3.4
5/3/2000 22:45,24.88,0.6,6
5/3/2000 23:00,24.86,0.6,3.9
5/3/2000 23:15,24.85,0.6,4.4
5/3/2000 23:30,24.8,0.6,5.5
5/3/2000 23:45,24.77,0.6,8.9
5/4/2000 0:00,24.76,0.6,5.6
5/4/2000 0:15,24.75,0.6,5.1
5/4/2000 0:30,24.73,0.6,5.7
5/4/2000 0:45,24.72,0.6,6.8
5/4/2000 1:00,24.69,0.6,5.7
5/4/2000 1:15,24.68,0.6,3.9
5/4/2000 1:30,24.65,0.6,5.2
5/4/2000 1:45,24.63,0.6,9.4
5/4/2000 2:00,24.62,0.6,22.1
5/4/2000 2:15,24.6,0.6,7.1
5/4/2000 2:30,24.59,0.6,7.4
5/4/2000 2:45,24.57,0.6,3.8
5/4/2000 3:00,24.54,0.6,9.4
5/4/2000 3:15,24.54,0.6,6.1
5/4/2000 3:30,24.51,0.6,5.1
5/4/2000 3:45,24.52,0.6,5.4
5/4/2000 4:00,24.54,0.6,5
5/4/2000 4:15,24.51,0.6,4.9
5/4/2000 4:30,24.5,0.6,6.2
5/4/2000 4:45,24.48,0.6,4.2
5/4/2000 5:00,24.47,0.6,5.9
5/4/2000 5:15,24.47,0.6,5
5/4/2000 5:30,24.45,0.6,7.3
5/4/2000 5:45,24.43,0.6,5.9
5/4/2000 6:00,24.39,0.6,6.4
5/4/2000 6:15,24.37,0.6,6.4
5/4/2000 6:30,24.37,0.6,5.9
5/4/2000 6:45,24.36,0.6,6.5
5/4/2000 7:00,24.35,0.6,7
5/4/2000 7:15,24.32,0.6,5
5/4/2000 7:30,24.3,0.6,5.6
5/4/2000 7:45,24.28,0.6,7
5/4/2000 8:00,24.27,0.6,6.9
5/4/2000 8:15,24.27,0.6,5.3
5/4/2000 8:30,24.26,0.6,7
5/4/2000 8:45,24.24,0.6,7.2
5/4/2000 9:00,24.24,0.6,7.3
5/4/2000 9:15,24.24,0.6,4.7
5/4/2000 9:30,24.23,0.6,4
5/4/2000 9:45,24.23,0.6,5.4
5/4/2000 10:00,24.23,0.6,3.5
5/4/2000 10:15,24.24,0.6,5.5
5/4/2000 10:30,24.24,0.6,5.7
5/4/2000 10:45,24.25,0.6,3.5
5/4/2000 11:00,24.34,0.6,3.5
5/4/2000 11:15,24.34,0.6,3.4
5/4/2000 11:30,24.32,0.6,4
5/4/2000 11:45,24.31,0.6,5.9
5/4/2000 12:00,24.35,0.6,3.7
5/4/2000 12:15,24.34,0.6,3.1
5/4/2000 12:30,24.45,0.6,5.6
5/4/2000 12:45,24.44,0.6,4.5
5/4/2000 13:00,24.45,0.6,3.7
5/4/2000 13:15,24.46,0.6,4.5
5/4/2000 13:30,24.4,0.6,3.4
5/4/2000 13:45,24.44,0.6,4
5/4/2000 14:00,24.47,0.6,3.8,
5/4/2000 14:15,24.54,0.6,4.4,
5/4/2000 14:30,24.63,0.6,5.9,
5/4/2000 14:45,24.75,0.6,5.3,
5/4/2000 15:00,24.78,0.6,3.6,
5/4/2000 15:15,24.69,0.6,2.8,
5/4/2000 15:30,24.65,0.6,16.4,
5/4/2000 15:45,24.89,0.6,4.6,
5/4/2000 16:00,,,,
5/4/2000 16:15,24.7,0.6,1580.7,1.12
5/4/2000 16:30,24.92,0.6,3.7,1.12
5/4/2000 16:45,24.78,0.6,3.9,1.12
5/4/2000 17:00,24.95,0.6,4.9,1.12
5/4/2000 17:15,25.06,0.6,4.3,1.12
5/4/2000 17:30,24.89,0.6,6.9,1.12
5/4/2000 17:45,24.86,0.6,5,1.12
5/4/2000 18:00,25.02,0.6,4.7,1.12
5/4/2000 18:15,25.02,0.6,5.3,1.12
5/4/2000 18:30,25.01,0.6,5.3,1.12
5/4/2000 18:45,24.99,0.6,6.7,1.12
5/4/2000 19:00,24.93,0.6,5,1.12
5/4/2000 19:15,24.9,0.6,4.6,1.12
5/4/2000 19:30,24.98,0.6,5.8,1.12
5/4/2000 19:45,24.9,0.6,6.4,1.12
5/4/2000 20:00,24.95,0.6,4.5,1.12
5/4/2000 20:15,24.88,0.6,4.3,1.12
5/4/2000 20:30,24.84,0.6,6.1,1.12
5/4/2000 20:45,24.88,0.6,3.9,1.12
5/4/2000 21:00,24.84,0.6,4.9,1.12
5/4/2000 21:15,24.78,0.6,6.3,1.12
5/4/2000 21:30,24.8,0.6,5.3,1.12
5/4/2000 21:45,24.77,0.6,4.6,1.12
5/4/2000 22:00,24.76,0.6,4.8,1.12
5/4/2000 22:15,24.72,0.6,4.5,1.12
5/4/2000 22:30,24.73,0.6,4.3,1.12
5/4/2000 22:45,24.7,0.6,5,1.12
5/4/2000 23:00,24.66,0.6,7,1.12
5/4/2000 23:15,24.63,0.6,4.2,1.12
5/4/2000 23:30,24.62,0.6,6.3,1.12
5/4/2000 23:45,24.59,0.6,4.8,1.12
5/5/2000 0:00,24.57,0.6,4.5,1.12
5/5/2000 0:15,24.56,0.6,2.7,1.12
5/5/2000 0:30,24.55,0.6,7.5,1.12
5/5/2000 0:45,24.53,0.6,5.6,1.12
5/5/2000 1:00,24.49,0.6,5.6,1.12
5/5/2000 1:15,24.49,0.6,6.4,1.12
5/5/2000 1:30,24.49,0.6,3.7,1.12
5/5/2000 1:45,24.47,0.6,4.6,1.12
5/5/2000 2:00,24.44,0.6,4.8,1.12
5/5/2000 2:15,24.43,0.6,5.6,1.12
5/5/2000 2:30,24.41,0.6,5.9,1.12
5/5/2000 2:45,24.4,0.6,5,1.12
5/5/2000 3:00,24.39,0.6,7.8,1.12
5/5/2000 3:15,24.36,0.6,4.7,1.12
5/5/2000 3:30,24.36,0.6,3.7,1.12
5/5/2000 3:45,24.34,0.6,3.7,1.12
5/5/2000 4:00,24.32,0.6,3.9,1.12
5/5/2000 4:15,24.31,0.6,4.8,1.12
5/5/2000 4:30,24.29,0.6,4.5,1.12
5/5/2000 4:45,24.28,0.6,9.4,1.12
5/5/2000 5:00,24.25,0.6,6.3,1.12
5/5/2000 5:15,24.25,0.6,5.9,1.12
5/5/2000 5:30,24.25,0.6,5.4,1.12
5/5/2000 5:45,24.25,0.6,5.3,1.12
5/5/2000 6:00,24.24,0.6,4.9,1.12
5/5/2000 6:15,24.21,0.6,4.8,1.12
5/5/2000 6:30,24.21,0.6,7.9,1.12
5/5/2000 6:45,24.2,0.6,5,1.12
5/5/2000 7:00,24.18,0.6,4,1.12
5/5/2000 7:15,24.16,0.6,8.1,1.12
5/5/2000 7:30,24.15,0.6,6.7,1.12
5/5/2000 7:45,24.15,0.6,4.8,1.12
5/5/2000 8:00,24.16,0.6,3.9,1.12
5/5/2000 8:15,24.17,0.6,6.1,1.12
5/5/2000 8:30,24.2,0.6,3.6,1.12
5/5/2000 8:45,24.21,0.6,4.7,1.12
5/5/2000 9:00,24.21,0.6,2.7,1.12
5/5/2000 9:15,24.22,0.6,3.4,1.12
5/5/2000 9:30,24.22,0.6,11.4,1.12
5/5/2000 9:45,24.22,0.6,3.3,1.12
5/5/2000 10:00,24.26,0.6,5,1.12
5/5/2000 10:15,24.29,0.6,5.3,1.12
5/5/2000 10:30,24.26,0.6,3.6,1.12
5/5/2000 10:45,24.32,0.6,2.8,1.12
5/5/2000 11:00,24.32,0.6,3.9,1.12
5/5/2000 11:15,24.36,0.6,3.5,1.12
5/5/2000 11:30,24.33,0.6,3.7,1.12
5/5/2000 11:45,24.33,0.6,4,1.12
5/5/2000 12:00,24.42,0.6,5.6,1.12
5/5/2000 12:15,24.41,0.6,2.9,1.12
5/5/2000 12:30,24.48,0.6,3.6,1.12
5/5/2000 12:45,24.51,0.6,4,1.12
5/5/2000 13:00,24.57,0.6,3.5,1.12
5/5/2000 13:15,24.57,0.6,2.6,1.12
5/5/2000 13:30,24.7,0.6,6.1,1.12
5/5/2000 13:45,24.49,0.6,4.7,1.12
5/5/2000 14:00,24.64,0.6,4.7,1.12
5/5/2000 14:15,24.6,0.6,4,1.12
5/5/2000 14:30,24.73,0.6,4.8,1.12
5/5/2000 14:45,24.93,0.6,6.4,1.12
5/5/2000 15:00,25,0.6,3.7,1.12
5/5/2000 15:15,24.85,0.6,3.4,1.12
5/5/2000 15:30,24.8,0.6,2.7,1.12
5/5/2000 15:45,24.78,0.6,3.4,1.12
5/5/2000 16:00,24.92,0.6,3.4,1.12
5/5/2000 16:15,25.08,0.6,4.2,1.12
5/5/2000 16:30,24.98,0.6,3.6,1.12
5/5/2000 16:45,24.9,0.6,6.9,1.12
5/5/2000 17:00,24.92,0.6,4.6,1.12
5/5/2000 17:15,24.88,0.6,2.9,1.12
5/5/2000 17:30,25.14,0.6,5.1,1.12
5/5/2000 17:45,25.13,0.6,3.9,1.12
5/5/2000 18:00,25.16,0.6,4.7,1.12
5/5/2000 18:15,25.15,0.6,3.9,1.12
5/5/2000 18:30,24.96,0.6,10.1,1.12
5/5/2000 18:45,24.96,0.6,4.8,1.12
5/5/2000 19:00,24.97,0.6,6.2,1.12
5/5/2000 19:15,25.05,0.6,4.7,1.12
5/5/2000 19:30,25.09,0.6,4.8,1.12
5/5/2000 19:45,25.08,0.6,10.8,1.12
5/5/2000 20:00,25.08,0.6,4.1,1.12
5/5/2000 20:15,25.04,0.6,6.2,1.12
5/5/2000 20:30,25.02,0.6,4,1.12
5/5/2000 20:45,25,0.6,6.6,1.12
5/5/2000 21:00,24.99,0.6,6.2,1.12
5/5/2000 21:15,24.98,0.6,5,1.12
5/5/2000 21:30,24.96,0.6,4,1.12
5/5/2000 21:45,24.94,0.6,4.5,1.12
5/5/2000 22:00,24.93,0.6,4.7,1.12
5/5/2000 22:15,24.89,0.6,4,1.12
5/5/2000 22:30,24.89,0.6,4.7,1.12
5/5/2000 22:45,24.87,0.6,4.8,1.12
5/5/2000 23:00,24.85,0.6,4.5,1.12
5/5/2000 23:15,24.83,0.6,10,1.12
5/5/2000 23:30,24.81,0.6,4,1.12
5/5/2000 23:45,24.8,0.6,4.4,1.12
5/6/2000 0:00,24.78,0.6,3.4,1.12
5/6/2000 0:15,24.77,0.6,4.4,1.12
5/6/2000 0:30,24.74,0.6,4.2,1.12
5/6/2000 0:45,24.73,0.6,4,1.12
5/6/2000 1:00,24.71,0.6,5.2,1.12
5/6/2000 1:15,24.69,0.6,4.2,1.12
5/6/2000 1:30,24.68,0.6,3.9,1.12
5/6/2000 1:45,24.64,0.6,5.9,1.12
5/6/2000 2:00,24.64,0.6,3.8,1.12
5/6/2000 2:15,24.61,0.6,3.6,1.12
5/6/2000 2:30,24.58,0.6,3.6,1.12
5/6/2000 2:45,24.59,0.6,5,1.12
5/6/2000 3:00,24.57,0.6,5.6,1.12
5/6/2000 3:15,24.56,0.6,5,1.12
5/6/2000 3:30,24.54,0.6,6.8,1.12
5/6/2000 3:45,24.53,0.6,3.6,1.12
5/6/2000 4:00,24.51,0.6,8.4,1.12
5/6/2000 4:15,24.51,0.6,8.7,1.12
5/6/2000 4:30,24.51,0.6,3.8,1.12
5/6/2000 4:45,24.5,0.6,5.1,1.12
5/6/2000 5:00,24.49,0.6,3.6,1.12
5/6/2000 5:15,24.47,0.6,4.7,1.12
5/6/2000 5:30,24.45,0.6,5.1,1.12
5/6/2000 5:45,24.43,0.6,6.4,1.12
5/6/2000 6:00,24.43,0.6,5.1,1.12
5/6/2000 6:15,24.41,0.6,4.3,1.12
5/6/2000 6:30,24.42,0.6,7.4,1.12
5/6/2000 6:45,24.42,0.6,3.6,1.12
5/6/2000 7:00,24.4,0.6,5,1.12
5/6/2000 7:15,24.4,0.6,4.6,1.12
5/6/2000 7:30,24.39,0.6,4.8,1.12
5/6/2000 7:45,24.4,0.6,4.3,1.12
5/6/2000 8:00,24.42,0.6,3.4,1.12
5/6/2000 8:15,24.45,0.6,4.7,1.12
5/6/2000 8:30,24.47,0.6,6.5,1.12
5/6/2000 8:45,24.48,0.6,3.6,1.12
5/6/2000 9:00,24.49,0.6,2,1.12
5/6/2000 9:15,24.51,0.6,3.5,1.12
5/6/2000 9:30,24.53,0.6,11.1,1.12
5/6/2000 9:45,24.58,0.6,4.3,1.12
5/6/2000 10:00,24.63,0.6,3.4,1.12
5/6/2000 10:15,24.51,0.6,2.6,1.12
5/6/2000 10:30,24.57,0.6,3.5,1.12
5/6/2000 10:45,24.64,0.6,3.6,1.12
5/6/2000 11:00,24.67,0.6,3.9,1.12
5/6/2000 11:15,24.65,0.6,2.6,1.12
5/6/2000 11:30,24.63,0.6,2.4,1.12
5/6/2000 11:45,24.69,0.6,2.8,1.12
5/6/2000 12:00,24.73,0.6,3.9,1.12
5/6/2000 12:15,24.73,0.6,3.7,1.12
5/6/2000 12:30,24.7,0.6,3.1,1.12
5/6/2000 12:45,24.66,0.6,2.8,1.12
5/6/2000 13:00,24.86,0.6,3.5,1.12
5/6/2000 13:15,24.75,0.6,3.5,1.12
5/6/2000 13:30,24.9,0.6,5.2,1.12
5/6/2000 13:45,24.87,0.6,3.6,1.12
5/6/2000 14:00,24.89,0.6,2.7,1.12
5/6/2000 14:15,24.87,0.6,4.2,1.12
5/6/2000 14:30,24.91,0.6,3.7,1.12
5/6/2000 14:45,24.94,0.6,4.8,1.12
5/6/2000 15:00,25.13,0.6,4.1,1.12
5/6/2000 15:15,25.07,0.6,4.2,1.12
5/6/2000 15:30,24.92,0.6,11.2,1.12
5/6/2000 15:45,24.82,0.6,3.9,1.12
5/6/2000 16:00,24.88,0.6,3.2,1.12
5/6/2000 16:15,25.13,0.6,3.2,1.12
5/6/2000 16:30,25.03,0.6,4.6,1.12
5/6/2000 16:45,25.26,0.6,3.9,1.12
5/6/2000 17:00,25.36,0.6,3.7,1.12
5/6/2000 17:15,25.16,0.6,6.5,1.12
5/6/2000 17:30,25.31,0.6,5.2,1.12
5/6/2000 17:45,25.12,0.6,3.1,1.12
5/6/2000 18:00,25.22,0.6,1.8,1.12
5/6/2000 18:15,25.06,0.6,5.7,1.12
5/6/2000 18:30,25.36,0.6,6.4,1.12
5/6/2000 18:45,25.18,0.6,4.7,1.12
5/6/2000 19:00,25.31,0.6,6.2,1.12
5/6/2000 19:15,25.17,0.6,7.4,1.12
5/6/2000 19:30,25.29,0.6,3.7,1.12
5/6/2000 19:45,25.28,0.6,3.9,1.12
5/6/2000 20:00,25.24,0.6,4.7,1.12
5/6/2000 20:15,25.22,0.6,5.6,1.12
5/6/2000 20:30,25.22,0.6,3.6,1.12
5/6/2000 20:45,25.2,0.6,4.5,1.12
5/6/2000 21:00,25.18,0.6,4.2,1.12
5/6/2000 21:15,25.16,0.6,6.2,1.12
5/6/2000 21:30,25.12,0.6,7.5,1.12
5/6/2000 21:45,25.12,0.6,5.7,1.12
5/6/2000 22:00,25.07,0.6,5.7,1.12
5/6/2000 22:15,25.07,0.6,4.8,1.12
5/6/2000 22:30,25.05,0.6,5.5,1.12
5/6/2000 22:45,25.04,0.6,5.6,1.12
5/6/2000 23:00,25.02,0.6,6.1,1.12
5/6/2000 23:15,25.02,0.6,4.9,1.12
5/6/2000 23:30,24.99,0.6,5.3,1.12
5/6/2000 23:45,24.98,0.6,4.7,1.12
5/7/2000 0:00,24.96,0.6,3.2,1.12
5/7/2000 0:15,24.95,0.6,5.3,1.12
5/7/2000 0:30,24.91,0.6,4.7,1.12
5/7/2000 0:45,24.91,0.6,4.2,1.12
5/7/2000 1:00,24.88,0.6,5.7,1.12
5/7/2000 1:15,24.87,0.6,5.4,1.12
5/7/2000 1:30,24.85,0.6,3.7,1.12
5/7/2000 1:45,24.85,0.6,5.9,1.12
5/7/2000 2:00,24.83,0.6,4.8,1.12
5/7/2000 2:15,24.83,0.6,4.5,1.12
5/7/2000 2:30,24.79,0.6,4.3,1.12
5/7/2000 2:45,24.8,0.6,6.6,1.12
5/7/2000 3:00,24.8,0.6,8.2,1.12
5/7/2000 3:15,24.79,0.6,6.2,1.12
5/7/2000 3:30,24.77,0.6,4.8,1.12
5/7/2000 3:45,24.76,0.6,3.6,1.12
5/7/2000 4:00,24.75,0.6,4.9,1.12
5/7/2000 4:15,24.73,0.6,5.2,1.12
5/7/2000 4:30,24.72,0.6,7.8,1.12
5/7/2000 4:45,24.69,0.6,5.1,1.12
5/7/2000 5:00,24.67,0.6,6.6,1.12
5/7/2000 5:15,24.66,0.6,3.1,1.12
5/7/2000 5:30,24.65,0.6,6.4,1.12
5/7/2000 5:45,24.65,0.6,4.5,1.12
5/7/2000 6:00,24.63,0.6,7.8,1.12
5/7/2000 6:15,24.65,0.6,6.2,1.12
5/7/2000 6:30,24.66,0.6,10,1.12
5/7/2000 6:45,24.66,0.6,5,1.12
5/7/2000 7:00,24.65,0.6,2.8,1.12
5/7/2000 7:15,24.65,0.6,3.9,1.12
5/7/2000 7:30,24.64,0.6,3.7,1.12
5/7/2000 7:45,24.63,0.6,6.4,1.12
5/7/2000 8:00,24.63,0.6,4,1.12
5/7/2000 8:15,24.65,0.6,5.1,1.12
5/7/2000 8:30,24.69,0.6,2.9,1.12
5/7/2000 8:45,24.72,0.6,3.2,1.12
5/7/2000 9:00,24.73,0.6,3.8,1.12
5/7/2000 9:15,24.72,0.6,4.2,1.12
5/7/2000 9:30,24.76,0.6,2.5,1.12
5/7/2000 9:45,24.79,0.6,3.7,1.12
5/7/2000 10:00,24.79,0.6,3.4,1.12